IRIDIUM 69 [-]

Last updated on Tue Jun 27 2023 00:03:07 GMT+0000 (Coordinated Universal Time)

1 25319U 98026A 23177.34537079 .00000598 00000+0 18569-3 0 9996 2 25319 86.3987 39.8524 0000954 163.9021 196.2208 14.39462149319413
UTC large
Height (km)
Speed (km/s)
/
Latitude / Longitude
Inclination (degrees)
Orbital Period (minutes)
Azimuth
Elevation
Range (km)
Doppler Factor

Next 0 passes for location: London (51.5072 / 0.1276)

Sorry there are no passes over London.